• Join FlightAware (Why Join?)
  • Login
  • US Flag 
01:23AM EDT


 

Airport Tracker/Info


-or-


 

Live Flight TrackerFlight Track Log ✈ TCF642 ✈ 29-Mar-2013 ✈ KPIT - KEWR

Flight Track Log - Related Links

Times and Time Zones

All times are in EDT time to prevent confusion due to time zone crossing. See the TCF642 flight status page for this flight to view local times or setup timezone preferences in your user account.

Time Position Orientation Groundspeed Altitude Reporting Facility
EDT Latitude Longitude Course Direction KTS MPH feet Rate Location/Type
06:20AM 40.4911 -80.2422 333° Northwest 150 173 2,300  Level FAA TRACON SMA TRACON (SMA)
06:21AM 40.5050 -80.2517 333° Northwest 159 183 3,200 2,160 Climbing FAA TRACON SMA TRACON (SMA)
06:21AM 40.5200 -80.2511 North 182 209 3,800 2,100 Climbing FAA TRACON SMA TRACON (SMA)
06:21AM 40.5372 -80.2486 North 207 238 4,600 2,760 Climbing FAA TRACON SMA TRACON (SMA)
06:22AM 40.5614 -80.2458 North 231 266 5,600 3,300 Climbing FAA TRACON SMA TRACON (SMA)
06:22AM 40.5814 -80.2431 North 236 272 6,800 3,420 Climbing FAA TRACON SMA TRACON (SMA)
06:22AM 40.6022 -80.2403 North 243 280 7,900 3,600 Climbing FAA TRACON SMA TRACON (SMA)
06:23AM 40.6286 -80.2372 North 247 284 9,300 3,420 Climbing FAA TRACON SMA TRACON (SMA)
06:23AM 40.6500 -80.2344 North 256 295 10,200 2,880 Climbing FAA TRACON SMA TRACON (SMA)
06:23AM 40.6722 -80.2317 North 261 300 11,200 2,700 Climbing FAA TRACON SMA TRACON (SMA)
06:24AM 40.7014 -80.2283 North 273 314 12,000 2,220 Climbing FAA TRACON SMA TRACON (SMA)
06:24AM 40.7258 -80.2253 North 286 329 12,700 2,100 Climbing FAA TRACON SMA TRACON (SMA)
06:24AM 40.7514 -80.2219 North 298 343 13,400 2,400 Climbing FAA TRACON SMA TRACON (SMA)
06:25AM 40.7844 -80.2181 North 309 356 14,300 3,000 Climbing FAA TRACON SMA TRACON (SMA)
06:25AM 40.8108 -80.2136 North 310 357 15,400 3,420 Climbing FAA TRACON SMA TRACON (SMA)
06:25AM 40.8406 -80.1947 26° Northeast 310 357 16,600 3,000 Climbing FAA TRACON SMA TRACON (SMA)
06:26AM 40.8606 -80.1708 42° Northeast 314 361 17,400 1,620 Climbing FAA TRACON SMA TRACON (SMA)
06:26AM 40.8811 -80.1461 42° Northeast 322 371 17,700 1,320 Climbing FAA TRACON SMA TRACON (SMA)
06:26AM 40.8992 -80.1219 45° Northeast 328 377 18,300 2,220 Climbing FAA TRACON SMA TRACON (SMA)
06:27AM 40.9283 -80.0900 40° Northeast 330 380 19,200 2,160 Climbing FAA TRACON SMA TRACON (SMA)
06:27AM 40.9494 -80.0647 42° Northeast 332 382 19,800 1,920 Climbing FAA TRACON SMA TRACON (SMA)
06:27AM 40.9708 -80.0389 42° Northeast 335 386 20,500 2,100 Climbing FAA TRACON SMA TRACON (SMA)
06:28AM 40.9981 -80.0064 42° Northeast 339 390 21,200 1,920 Climbing FAA TRACON SMA TRACON (SMA)
06:28AM 41.0200 -79.9806 42° Northeast 342 394 21,800 1,620 Climbing FAA TRACON SMA TRACON (SMA)
06:28AM 41.0419 -79.9539 43° Northeast 345 397 22,300 1,740 Climbing FAA TRACON SMA TRACON (SMA)
06:29AM 41.0703 -79.9211 41° Northeast 349 402 23,000 1,800 Climbing FAA TRACON SMA TRACON (SMA)
06:29AM 41.0925 -79.8936 43° Northeast 353 406 23,500 1,500 Climbing FAA TRACON SMA TRACON (SMA)
06:29AM 41.1153 -79.8656 43° Northeast 358 412 24,000 1,860 Climbing FAA TRACON SMA TRACON (SMA)
06:30AM 41.1444 -79.8311 42° Northeast 361 415 24,800 2,100 Climbing FAA TRACON SMA TRACON (SMA)
06:30AM 41.1658 -79.8056 42° Northeast 365 420 25,400 1,800 Climbing FAA TRACON SMA TRACON (SMA)
06:30AM 41.1911 -79.7744 43° Northeast 368 423 26,000 2,100 Climbing FAA TRACON SMA TRACON (SMA)
06:31AM 41.2203 -79.7383 43° Northeast 371 427 26,800 2,100 Climbing FAA TRACON SMA TRACON (SMA)
06:31AM 41.2442 -79.7100 42° Northeast 373 429 27,400 1,560 Climbing FAA TRACON SMA TRACON (SMA)
06:31AM 41.2683 -79.6811 42° Northeast 376 433 27,900 1,020 Climbing FAA TRACON SMA TRACON (SMA)
06:32AM 41.2742 -79.6736 44° Northeast 378 435 28,100 300 Climbing FAA TRACON SMA TRACON (SMA)
06:32AM 41.2742 -79.6736 194° South 378 435 28,100 1,860 Level FAA TRACON SMA TRACON (SMA)
06:32AM 41.3364 -79.5683 52° Northeast 372 428 29,500 1,380 Climbing Cleveland Center
06:33AM 41.3556 -79.4047 81° East 390 449 30,100 660 Climbing Cleveland Center
06:34AM 41.3747 -79.2300 82° East 431 496 30,900 1,140 Climbing Cleveland Center
06:35AM 41.3953 -79.0553 81° East 463 533 32,400 1,020 Climbing Cleveland Center
06:36AM 41.4136 -78.8775 82° East 476 548 33,000 300 Climbing Cleveland Center
06:37AM 41.4319 -78.7081 82° East 476 548 33,000  Level Cleveland Center
06:40AM 41.4417 -78.3544 88° East 478 550 33,000 -60 Level New York Center
06:41AM 41.4322 -78.1761 94° East 478 550 32,900 -720 Descending New York Center
06:42AM 41.4203 -77.9978 95° East 484 557 31,600 -960 Descending New York Center
06:43AM 41.4097 -77.8250 95° East 484 557 31,000 -300 Descending New York Center
06:44AM 41.3972 -77.6467 95° East 484 557 31,000  Level New York Center
06:45AM 41.3864 -77.4711 95° East 484 557 31,000  Level New York Center
06:46AM 41.3722 -77.2789 96° East 484 557 31,000 -360 Level New York Center
06:47AM 41.3606 -77.1064 95° East 484 557 30,300 -1,380 Descending New York Center
06:48AM 41.3492 -76.9311 95° East 479 551 28,200 -2,100 Descending New York Center
06:48AM 41.3328 -76.7639 97° East 473 544 26,200 -1,920 Descending New York Center
06:50AM 41.2925 -76.6083 109° East 449 517 24,400 -1,740 Descending New York Center
06:51AM 41.2539 -76.4617 109° East 438 504 22,700 -1,800 Descending New York Center
06:52AM 41.2164 -76.3289 111° Southeast 428 493 20,900 -1,800 Descending New York Center
06:53AM 41.1772 -76.1850 110° East 417 480 19,100 -1,800 Descending New York Center
06:54AM 41.1381 -76.0331 109° East 403 464 17,300 -1,800 Descending New York Center
06:55AM 41.1003 -75.8981 110° East 395 455 15,600 -1,800 Descending New York Center
06:56AM 41.0681 -75.7772 109° East 389 448 13,800 -1,380 Descending New York Center
06:57AM 41.0317 -75.6478 110° East 382 440 13,000 -420 Descending New York Center
06:58AM 40.9936 -75.5078 110° East 382 440 13,000 -480 Level New York Center
06:59AM 40.9606 -75.4011 112° Southeast 372 428 12,100 -1,200 Descending New York Center
07:00AM 40.9294 -75.2864 110° East 321 369 10,600 -1,320 Descending New York Center
07:01AM 40.9019 -75.1856 110° East 298 343 9,500 -1,200 Descending New York Center
07:02AM 40.8744 -75.0878 110° East 290 334 8,300 -1,200 Descending New York Center
07:02AM 40.8483 -74.9983 111° Southeast 290 334 7,200 -720 Descending New York Center
07:04AM 40.8581 -74.9028 82° East 257 296 7,000 -120 Descending New York Center
07:05AM 40.8764 -74.7942 77° East 270 311 7,000 -300 Level New York Center
07:06AM 40.8819 -74.6931 86° East 271 312 6,500 -540 Descending New York Center
07:06AM 40.8831 -74.5942 89° East 271 312 6,000 -300 Descending New York Center
07:07AM 40.8333 -74.5667 157° South 270 311 6,000 -300 Level New York TRACON
07:08AM 40.7500 -74.5833 189° South 263 303 5,500 -480 Descending New York TRACON
07:09AM 40.6667 -74.5667 171° South 267 307 5,000 -300 Descending New York TRACON
07:10AM 40.6000 -74.5333 159° South 275 316 4,900 -480 Descending New York TRACON
07:11AM 40.5500 -74.4833 143° Southeast 266 306 4,100 -900 Descending New York TRACON
07:12AM 40.5000 -74.4167 135° Southeast 225 259 3,200 -540 Descending New York TRACON
07:13AM 40.4667 -74.3500 123° Southeast 205 236 3,000 -120 Descending New York TRACON
07:14AM 40.5000 -74.3000 49° Northeast 172 198 3,000  Level New York TRACON
07:15AM 40.5333 -74.2667 37° Northeast 161 185 3,000 -300 Level New York TRACON
07:16AM 40.5667 -74.2333 37° Northeast 157 181 2,500 -660 Descending New York TRACON
07:17AM 40.6167 -74.2167 14° North 157 181 1,700 -840 Descending New York TRACON
07:18AM 40.6500 -74.2000 21° North 125 144 900 -840 Descending New York TRACON
07:20AM 40.6833 -74.1667 123° Southeast  Level FlightAware Approximate
07:27AM 40.6925 -74.1687 123° Southeast  Level Estimated
07:28AM 40.6925 -74.1687 123° Southeast  Level Estimated
07:29AM 40.6925 -74.1687 123° Southeast  Level Estimated